H1 CPF 2 NER 2021 10 10 9 283 01 glonass140 H2 1903001 9140 44299 2021 10 10 0 0 0 2021 10 13 23 45 0 900 1 1 0 0 0 1 H9 10 0 59497 0.00000 0 -14105914.744 -1587007.788 -21156925.195 10 0 59497 900.00000 0 -15782647.641 -3480267.697 -19696119.789 10 0 59497 1800.00000 0 -17450222.040 -5100786.377 -17851441.340 10 0 59497 2700.00000 0 -19046177.630 -6429228.805 -15658872.100 10 0 59497 3600.00000 0 -20507465.909 -7458964.424 -13161186.533 10 0 59497 4500.00000 0 -21773084.443 -8196074.508 -10407106.837 10 0 59497 5400.00000 0 -22786643.187 -8658821.990 -7450340.729 10 0 59497 6300.00000 0 -23498753.926 -8876608.188 -4348521.278 10 0 59497 7200.00000 0 -23869141.464 -8888462.676 -1162070.777 10 0 59497 8100.00000 0 -23868387.302 -8741132.554 2046987.852 10 0 59497 9000.00000 0 -23479232.380 -8486854.183 5216247.756 10 0 59497 9900.00000 0 -22697384.520 -8180903.732 8284137.985 10 0 59497 10800.00000 0 -21531797.437 -7879031.803 11191122.006 10 0 59497 11700.00000 0 -20004410.657 -7634891.798 13880851.210 10 0 59497 12600.00000 0 -18149362.473 -7497571.275 16301251.011 10 0 59497 13500.00000 0 -16011710.015 -7509330.554 18405519.128 10 0 59497 14400.00000 0 -13645710.773 -7703643.470 20153017.731 10 0 59497 15300.00000 0 -11112737.775 -8103621.976 21510043.579 10 0 59497 16200.00000 0 -8478915.195 -8720889.862 22450462.883 10 0 59497 17100.00000 0 -5812572.015 -9554951.989 22956200.400 10 0 59497 18000.00000 0 -3181618.398 -10593084.736 23017574.828 10 0 59497 18900.00000 0 -650951.912 -11810751.935 22633475.434 10 0 59497 19800.00000 0 1720000.892 -13172529.058 21811377.422 10 0 59497 20700.00000 0 3879507.681 -14633497.614 20567196.207 10 0 59497 21600.00000 0 5785428.376 -16141052.574 18924983.365 10 0 59497 22500.00000 0 7406711.176 -17637048.766 16916469.574 10 0 59497 23400.00000 0 8724426.062 -19060198.058 14580462.416 10 0 59497 24300.00000 0 9732293.992 -20348618.731 11962109.424 10 0 59497 25200.00000 0 10436690.578 -21442431.766 9112039.141 10 0 59497 26100.00000 0 10856124.380 -22286296.334 6085395.407 10 0 59497 27000.00000 0 11020211.732 -22831778.765 2940782.211 10 0 59497 27900.00000 0 10968190.851 -23039455.632 -260861.636 10 0 59497 28800.00000 0 10747037.303 -22880662.034 -3457436.896 10 0 59497 29700.00000 0 10409259.850 -22338810.514 -6586885.105 10 0 59497 30600.00000 0 10010469.376 -21410223.617 -9588393.442 10 0 59497 31500.00000 0 9606823.561 -20104443.206 -12403579.506 10 0 59497 32400.00000 0 9252455.561 -18444001.480 -14977632.653 10 0 59497 33300.00000 0 8996996.063 -16463661.198 -17260388.990 10 0 59497 34200.00000 0 8883294.445 -14209155.102 -19207318.310 10 0 59497 35100.00000 0 8945436.639 -11735475.650 -20780402.953 10 0 59497 36000.00000 0 9207144.981 -9104785.302 -21948890.633 10 0 59497 36900.00000 0 9680629.224 -6384033.868 -22689905.714 10 0 59497 37800.00000 0 10365938.887 -3642381.876 -22988906.258 10 0 59497 38700.00000 0 11250845.826 -948537.275 -22839977.207 10 0 59497 39600.00000 0 12311263.313 1631883.245 -22245953.321 10 0 59497 40500.00000 0 13512185.036 4038858.078 -21218368.932 10 0 59497 41400.00000 0 14809105.123 6220224.982 -19777235.029 10 0 59497 42300.00000 0 16149859.610 8133611.094 -17950647.789 10 0 59497 43200.00000 0 17476811.568 9747948.211 -15774236.126 10 0 59497 44100.00000 0 18729287.274 11044510.464 -13290459.231 10 0 59497 45000.00000 0 19846159.814 12017431.793 -10547768.343 10 0 59497 45900.00000 0 20768470.155 12673682.982 -7599649.876 10 0 59497 46800.00000 0 21441974.052 13032511.064 -4503569.594 10 0 59497 47700.00000 0 21819506.382 13124366.893 -1319839.727 10 0 59497 48600.00000 0 21863062.475 12989368.525 1889567.586 10 0 59497 49500.00000 0 21545508.341 12675367.734 5062236.117 10 0 59497 50400.00000 0 20851847.729 12235703.589 8136525.786 10 0 59497 51300.00000 0 19779993.139 11726739.994 11052772.748 10 0 59497 52200.00000 0 18341009.064 11205292.687 13754445.644 10 0 59497 53100.00000 0 16558818.195 10726055.244 16189235.513 10 0 59497 54000.00000 0 14469383.809 10339132.974 18310058.859 10 0 59497 54900.00000 0 12119403.310 10087788.371 20075955.446 10 0 59497 55800.00000 0 9564567.938 10006492.226 21452864.781 10 0 59497 56700.00000 0 6867461.163 10119361.295 22414267.937 10 0 59497 57600.00000 0 4095182.636 10439046.906 22941684.018 10 0 59497 58500.00000 0 1316795.359 10966119.992 23025013.268 10 0 59497 59400.00000 0 -1399299.563 11688977.485 22662721.584 10 0 59497 60300.00000 0 -3987953.731 12584273.557 21861863.820 10 0 59497 61200.00000 0 -6389722.513 13617857.704 20637945.945 10 0 59497 62100.00000 0 -8553077.002 14746181.013 19014628.688 10 0 59497 63000.00000 0 -10436287.203 15918112.749 17023277.841 10 0 59497 63900.00000 0 -12008899.980 17077092.544 14702369.024 10 0 59497 64800.00000 0 -13252751.781 18163529.495 12096757.095 10 0 59497 65700.00000 0 -14162474.878 19117349.034 9256822.903 10 0 59497 66600.00000 0 -14745476.493 19880581.846 6237512.459 10 0 59497 67500.00000 0 -15021391.802 20399886.930 3097285.730 10 0 59497 68400.00000 0 -15021033.537 20628902.994 -103005.716 10 0 59497 69300.00000 0 -14784881.873 20530328.957 -3301291.254 10 0 59497 70200.00000 0 -14361177.654 20077645.129 -6435481.665 10 0 59497 71100.00000 0 -13803698.915 19256401.155 -9444674.407 10 0 59497 72000.00000 0 -13169314.215 18065014.701 -12270339.996 10 0 59497 72900.00000 0 -12515416.110 16515045.131 -14857466.031 10 0 59497 73800.00000 0 -11897343.489 14630928.357 -17155636.011 10 0 59497 74700.00000 0 -11365902.293 12449181.791 -19120021.096 10 0 59497 75600.00000 0 -10965090.270 10017110.668 -20712264.737 10 0 59497 76500.00000 0 -10730123.017 7391068.093 -21901242.089 10 0 59497 77400.00000 0 -10685845.922 4634340.297 -22663678.562 10 0 59497 78300.00000 0 -10845600.399 1814744.457 -22984614.676 10 0 59497 79200.00000 0 -11210593.505 -997961.208 -22857707.448 10 0 59497 80100.00000 0 -11769798.698 -3734747.158 -22285361.740 10 0 59497 81000.00000 0 -12500392.757 -6329950.653 -21278688.500 10 0 59497 81900.00000 0 -13368711.019 -8723772.095 -19857290.206 10 0 59497 82800.00000 0 -14331680.798 -10864525.091 -18048877.507 10 0 59497 83700.00000 0 -15338672.282 -12710546.274 -15888724.433 10 0 59497 84600.00000 0 -16333688.198 -14231685.239 -13418972.999 10 0 59497 85500.00000 0 -17257798.894 -15410312.777 -10687801.287 10 0 59498 0.00000 0 -18051718.753 -16241806.144 -7748472.271 10 0 59498 900.00000 0 -18658414.339 -16734492.938 -4658281.304 10 0 59498 1800.00000 0 -19025631.813 -16909056.772 -1477428.121 10 0 59498 2700.00000 0 -19108237.318 -16797433.563 1732168.684 10 0 59498 3600.00000 0 -18870269.714 -16441246.162 4908086.340 10 0 59498 4500.00000 0 -18286619.159 -15889846.247 7988618.489 10 0 59498 5400.00000 0 -17344260.777 -15198048.186 10913976.825 10 0 59498 6300.00000 0 -16042991.858 -14423652.235 13627450.029 10 0 59498 7200.00000 0 -14395642.268 -13624862.764 16076497.442 10 0 59498 8100.00000 0 -12427749.983 -12857710.907 18213756.842 10 0 59498 9000.00000 0 -10176715.944 -12173590.101 19997947.814 10 0 59498 9900.00000 0 -7690474.057 -11617007.549 21394654.530 10 0 59498 10800.00000 0 -5025731.798 -11223644.974 22376974.478 10 0 59498 11700.00000 0 -2245854.212 -11018808.672 22926022.295 10 0 59498 12600.00000 0 581521.628 -11016332.418 23031280.579 10 0 59498 13500.00000 0 3387044.170 -11217977.853 22690792.293 10 0 59498 14400.00000 0 6102272.721 -11613356.477 21911192.040 10 0 59498 15300.00000 0 8662263.799 -12180375.961 20707576.103 10 0 59498 16200.00000 0 11008013.502 -12886192.052 19103213.785 10 0 59498 17100.00000 0 13088656.771 -13688626.682 17129105.087 10 0 59498 18000.00000 0 14863334.039 -14537993.735 14823392.386 10 0 59498 18900.00000 0 16302649.259 -15379257.101 12230636.199 10 0 59498 19800.00000 0 17389659.713 -16154431.713 9400967.607 10 0 59498 20700.00000 0 18120356.833 -16805127.872 6389132.312 10 0 59498 21600.00000 0 18503618.211 -17275132.786 3253443.431 10 0 59498 22500.00000 0 18560632.580 -17512921.163 54662.149 10 0 59498 23400.00000 0 18323821.412 -17473989.048 -3145172.848 10 0 59498 24300.00000 0 17835301.906 -17122911.947 -6283945.004 10 0 59498 25200.00000 0 17144955.440 -16435039.280 -9300665.467 10 0 59498 26100.00000 0 16308182.396 -15397752.049 -12136660.959 10 0 59498 27000.00000 0 15383437.779 -14011228.664 -14736720.441 10 0 59498 27900.00000 0 14429651.592 -12288684.289 -17050177.675 10 0 59498 28800.00000 0 13503643.131 -10256071.266 -19031907.770 10 0 59498 29700.00000 0 12657638.923 -7951250.801 -20643217.518 10 0 59498 30600.00000 0 11936999.803 -5422668.456 -21852611.360 10 0 59498 31500.00000 0 11378254.022 -2727587.196 -22636417.154 10 0 59498 32400.00000 0 11007520.371 70049.585 -22979258.827 10 0 59498 33300.00000 0 10839388.805 2902036.736 -22874365.940 10 0 59498 34200.00000 0 10876306.673 5698507.211 -22323713.470 10 0 59498 35100.00000 0 11108497.072 8390604.853 -21337988.530 10 0 59498 36000.00000 0 11514413.155 10913118.488 -19936384.232 10 0 59498 36900.00000 0 12061709.233 13206967.098 -18146224.433 10 0 59498 37800.00000 0 12708687.339 15221432.089 -16002426.634 10 0 59498 38700.00000 0 13406157.466 16916043.326 -13546813.665 10 0 59498 39600.00000 0 14099631.813 18262040.150 -10827288.101 10 0 59498 40500.00000 0 14731759.044 19243346.861 -7896886.256 10 0 59498 41400.00000 0 15244894.224 19857022.845 -4812731.202 10 0 59498 42300.00000 0 15583694.321 20113169.950 -1634906.528 10 0 59498 43200.00000 0 15697628.282 20034303.008 1574725.947 10 0 59498 44100.00000 0 15543294.555 19654212.246 4753740.140 10 0 59498 45000.00000 0 15086447.495 19016367.821 7840366.544 10 0 59498 45900.00000 0 14303646.867 18171935.967 10774695.338 10 0 59498 46800.00000 0 13183460.980 17177492.317 13499837.948 10 0 59498 47700.00000 0 11727173.249 16092530.175 15963024.443 10 0 59498 48600.00000 0 9948963.012 14976869.527 18116616.016 10 0 59498 49500.00000 0 7875553.577 13888075.969 19919013.932 10 0 59498 50400.00000 0 5545342.654 12878997.593 21335448.607 10 0 59498 51300.00000 0 3007051.575 11995522.172 22338635.244 10 0 59498 52200.00000 0 317949.208 11274647.274 22909285.008 10 0 59498 53100.00000 0 -2458276.242 10742942.502 23036463.522 10 0 59498 54000.00000 0 -5253910.524 10415466.539 22717791.121 10 0 59498 54900.00000 0 -7999774.074 10295182.830 21959482.053 10 0 59498 55800.00000 0 -10627845.971 10372897.231 20776222.380 10 0 59498 56700.00000 0 -13073844.481 10627719.544 19190888.993 10 0 59498 57600.00000 0 -15279659.300 11028029.488 17234114.670 10 0 59498 58500.00000 0 -17195536.405 11532906.989 14943706.706 10 0 59498 59400.00000 0 -18781926.357 12093967.518 12363929.102 10 0 59498 60300.00000 0 -20010920.312 12657526.439 9544660.728 10 0 59498 61200.00000 0 -20867214.514 13167002.441 6540444.341 10 0 59498 62100.00000 0 -21348563.242 13565459.827 3409443.457 10 0 59498 63000.00000 0 -21465701.056 13798183.230 212326.065 10 0 59498 63900.00000 0 -21241737.056 13815176.355 -2988903.937 10 0 59498 64800.00000 0 -20711045.900 13573479.019 -6132105.496 10 0 59498 65700.00000 0 -19917701.406 13039203.777 -9156206.274 10 0 59498 66600.00000 0 -18913517.942 12189204.760 -12002391.956 10 0 59498 67500.00000 0 -17755781.588 11012306.396 -14615255.506 10 0 59498 68400.00000 0 -16504766.304 9510037.943 -16943883.409 10 0 59498 69300.00000 0 -15221139.841 7696840.454 -18942856.929 10 0 59498 70200.00000 0 -13963368.931 5599734.939 -20573148.114 10 0 59498 71100.00000 0 -12785233.595 3257463.205 -21802892.251 10 0 59498 72000.00000 0 -11733556.004 719135.326 -22608020.848 10 0 59498 72900.00000 0 -10846240.291 -1957561.437 -22972742.043 10 0 59498 73800.00000 0 -10150706.642 -4708518.744 -22889858.359 10 0 59498 74700.00000 0 -9662786.297 -7465638.969 -22360914.896 10 0 59498 75600.00000 0 -9386124.460 -10159441.640 -21396174.556 10 0 59498 76500.00000 0 -9312116.461 -12721735.775 -20014420.303 10 0 59498 77400.00000 0 -9420379.762 -15088246.229 -18242588.057 10 0 59498 78300.00000 0 -9679741.349 -17201084.111 -16115237.316 10 0 59498 79200.00000 0 -10049697.992 -19010957.652 -13673869.967 10 0 59498 80100.00000 0 -10482286.493 -20479030.918 -10966111.104 10 0 59498 81000.00000 0 -10924283.401 -21578352.697 -8044768.527 10 0 59498 81900.00000 0 -11319639.556 -22294796.327 -4966790.262 10 0 59498 82800.00000 0 -11612044.814 -22627472.039 -1792141.697 10 0 59498 83700.00000 0 -11747512.911 -22588596.082 1417374.479 10 0 59498 84600.00000 0 -11676875.752 -22202824.045 4599331.286 10 0 59498 85500.00000 0 -11358080.740 -21506078.573 7691898.532 10 0 59499 0.00000 0 -10758193.512 -20543923.107 10635047.124 10 0 59499 900.00000 0 -9855021.027 -19369551.571 13371714.285 10 0 59499 1800.00000 0 -8638287.622 -18041481.583 15848903.024 10 0 59499 2700.00000 0 -7110313.901 -16621047.593 18018700.359 10 0 59499 3600.00000 0 -5286171.130 -15169800.972 19839191.493 10 0 59499 4500.00000 0 -3193304.863 -13746925.507 21275255.149 10 0 59499 5400.00000 0 -870643.715 -12406775.888 22299226.051 10 0 59499 6300.00000 0 1632769.749 -11196640.866 22891413.435 10 0 59499 7200.00000 0 4259569.536 -10154822.970 23040467.183 10 0 59499 8100.00000 0 6946204.852 -9309113.157 22743585.948 10 0 59499 9000.00000 0 9625339.559 -8675722.258 22006564.261 10 0 59499 9900.00000 0 12228414.625 -8258712.301 20843678.290 10 0 59499 10800.00000 0 14688269.411 -8049950.229 19277412.525 10 0 59499 11700.00000 0 16941715.053 -8029585.201 17338032.186 10 0 59499 12600.00000 0 18931954.989 -8167029.277 15063008.781 10 0 59499 13500.00000 0 20610753.723 -8422400.630 12496308.654 10 0 59499 14400.00000 0 21940264.788 -8748369.274 9687556.876 10 0 59499 15300.00000 0 22894442.435 -9092328.596 6691091.197 10 0 59499 16200.00000 0 23459978.395 -9398802.081 3564922.991 10 0 59499 17100.00000 0 23636724.352 -9611984.541 369624.105 10 0 59499 18000.00000 0 23437581.807 -9678311.000 -2832839.632 10 0 59499 18900.00000 0 22887863.147 -9548944.717 -5980306.174 10 0 59499 19800.00000 0 22024149.773 -9182078.643 -9011623.284 10 0 59499 20700.00000 0 20892694.322 -8544952.010 -11867839.165 10 0 59499 21600.00000 0 19547433.357 -7615495.191 -14493354.198 10 0 59499 22500.00000 0 18047693.522 -6383531.358 -16837010.792 10 0 59499 23400.00000 0 16455687.353 -4851481.913 -18853099.300 10 0 59499 24300.00000 0 14833904.059 -3034543.428 -20502259.634 10 0 59499 25200.00000 0 13242505.237 -960326.110 -21752260.184 10 0 59499 26100.00000 0 11736835.509 1332033.338 -22578637.962 10 0 59499 27000.00000 0 10365153.272 3793249.350 -22965186.757 10 0 59499 27900.00000 0 9166677.558 6365699.623 -22904283.021 10 0 59499 28800.00000 0 8170033.639 8985597.016 -22397042.481 10 0 59499 29700.00000 0 7392163.084 11585431.177 -21453303.843 10 0 59499 30600.00000 0 6837744.170 14096578.140 -20091439.464 10 0 59499 31500.00000 0 6499146.841 16451968.628 -18337996.398 10 0 59499 32400.00000 0 6356923.480 18588703.240 -16227174.755 10 0 59499 33300.00000 0 6380813.789 20450504.662 -13800153.666 10 0 59499 34200.00000 0 6531220.077 21989903.831 -11104278.514 10 0 59499 35100.00000 0 6761088.977 23170068.279 -8192125.974 10 0 59499 36000.00000 0 7018118.218 23966196.212 -5120466.097 10 0 59499 36900.00000 0 7247193.250 24366418.325 -1949142.899 10 0 59499 37800.00000 0 7392948.783 24372170.608 1260103.404 10 0 59499 38700.00000 0 7402345.197 23998023.958 4444848.322 10 0 59499 39600.00000 0 7227149.587 23270979.572 7543204.316 10 0 59499 40500.00000 0 6826215.613 22229261.786 10495026.728 10 0 59499 41400.00000 0 6167465.383 20920661.045 13243080.490 10 0 59499 42300.00000 0 5229489.735 19400498.402 15734144.821 10 0 59499 43200.00000 0 4002699.728 17729298.320 17920034.995 10 0 59499 44100.00000 0 2489981.337 15970268.137 19758522.296 10 0 59499 45000.00000 0 706826.367 14186689.909 21214135.595 10 0 59499 45900.00000 0 -1319065.653 12439333.224 22258830.677 10 0 59499 46800.00000 0 -3548697.969 10783995.922 22872516.056 10 0 59499 47700.00000 0 -5933161.877 9269273.827 23043426.740 10 0 59499 48600.00000 0 -8415439.982 7934650.587 22768340.169 10 0 59499 49500.00000 0 -10932553.753 6808985.223 22052631.206 10 0 59499 50400.00000 0 -13417967.751 5909458.574 20910165.721 10 0 59499 51300.00000 0 -15804152.612 5241020.883 19363034.916 10 0 59499 52200.00000 0 -18025202.373 4796362.342 17441135.092 10 0 59499 53100.00000 0 -20019399.232 4556407.063 15181600.151 10 0 59499 54000.00000 0 -21731620.816 4491309.508 12628096.583 10 0 59499 54900.00000 0 -23115491.052 4561911.752 9829993.124 10 0 59499 55800.00000 0 -24135185.732 4721600.882 6841419.747 10 0 59499 56700.00000 0 -24766817.758 4918489.044 3720232.767 10 0 59499 57600.00000 0 -24999343.926 5097824.933 526904.871 10 0 59499 58500.00000 0 -24834954.640 5204535.471 -2676639.219 10 0 59499 59400.00000 0 -24288929.266 5185790.514 -5828219.496 10 0 59499 60300.00000 0 -23388962.015 4993481.845 -8866606.816 10 0 59499 61200.00000 0 -22173985.464 4586510.936 -11732714.820 10 0 59499 62100.00000 0 -20692540.003 3932787.429 -14370754.106 10 0 59499 63000.00000 0 -19000756.769 3010852.136 -16729325.612 10 0 59499 63900.00000 0 -17160038.161 1811053.920 -18762431.108 10 0 59499 64800.00000 0 -15234533.017 336228.427 -20430380.351 10 0 59499 65700.00000 0 -13288512.342 -1398152.422 -21700576.383 10 0 59499 66600.00000 0 -11383756.003 -3364368.873 -22548162.812 10 0 59499 67500.00000 0 -9577060.367 -5523365.613 -22956519.672 10 0 59499 68400.00000 0 -7917971.866 -7826151.543 -22917597.469 10 0 59499 69300.00000 0 -6446842.063 -10215629.769 -22432082.215 10 0 59499 70200.00000 0 -5193286.062 -12628782.189 -21509387.661 10 0 59499 71100.00000 0 -4175109.039 -14999117.742 -20167474.426 10 0 59499 72000.00000 0 -3397745.768 -17259281.830 -18432499.249 10 0 59499 72900.00000 0 -2854236.042 -19343717.440 -16338301.137 10 0 59499 73800.00000 0 -2525735.982 -21191266.024 -13925734.547 10 0 59499 74700.00000 0 -2382542.326 -22747598.494 -11241863.095 10 0 59499 75600.00000 0 -2385584.692 -23967373.990 -8339030.205 10 0 59499 76500.00000 0 -2488320.831 -24816035.576 -5273825.775 10 0 59499 77400.00000 0 -2638952.676 -25271167.541 -2105970.273 10 0 59499 78300.00000 0 -2782867.347 -25323357.905 1102860.728 10 0 59499 79200.00000 0 -2865197.943 -24976530.870 4290247.395 10 0 59499 80100.00000 0 -2833394.156 -24247736.635 7394247.006 10 0 59499 81000.00000 0 -2639692.789 -23166409.137 10354601.259 10 0 59499 81900.00000 0 -2243382.987 -21773124.651 13113905.495 10 0 59499 82800.00000 0 -1612770.289 -20117915.086 15618717.014 10 0 59499 83700.00000 0 -726756.789 -18258208.154 17820581.418 10 0 59499 84600.00000 0 424028.772 -16256481.556 19676958.036 10 0 59499 85500.00000 0 1836597.914 -14177729.792 21152027.684 10 0 59500 0.00000 0 3495492.304 -12086849.267 22217368.728 10 0 59500 900.00000 0 5373201.970 -10046048.745 22852490.525 10 0 59500 1800.00000 0 7431092.167 -8112394.492 23045214.216 10 0 59500 2700.00000 0 9620803.783 -6335586.688 22791896.908 10 0 59500 3600.00000 0 11886067.803 -4756060.377 22097494.426 10 0 59500 4500.00000 0 14164860.542 -3403486.778 20975462.718 10 0 59500 5400.00000 0 16391811.586 -2295735.590 19447499.825 10 0 59500 6300.00000 0 18500766.244 -1438339.822 17543132.982 10 0 59500 7200.00000 0 20427397.685 -824484.340 15299158.032 10 0 59500 8100.00000 0 22111761.806 -435517.815 12758940.807 10 0 59500 9000.00000 0 23500689.712 -241966.361 9971592.520 10 0 59500 9900.00000 0 24549918.898 -205006.520 6991033.758 10 0 59500 10800.00000 0 25225874.538 -278336.061 3874963.728 10 0 59500 11700.00000 0 25507026.230 -410364.390 683753.503 10 0 59500 12600.00000 0 25384762.723 -546630.699 -2520716.130 10 0 59500 13500.00000 0 24863746.960 -632348.074 -5676250.302 10 0 59500 14400.00000 0 23961735.168 -614965.976 -8721546.231 10 0 59500 15300.00000 0 22708866.171 -446642.313 -11597386.309 10 0 59500 16200.00000 0 21146449.290 -86519.612 -14247794.610 10 0 59500 17100.00000 0 19325300.414 497292.375 -16621133.717 10 0 59500 18000.00000 0 17303695.020 1326113.179 -18671119.744 10 0 59500 18900.00000 0 15145023.295 2409537.089 -20357734.984 10 0 59500 19800.00000 0 12915245.194 3744778.604 -21648019.572 10 0 59500 20700.00000 0 10680252.076 5316547.749 -22516725.859 10 0 59500 21600.00000 0 8503245.502 7097462.751 -22946821.943 10 0 59500 22500.00000 0 6442243.263 9048984.740 -22929833.836 10 0 59500 23400.00000 0 4547817.440 11122836.796 -22466018.870 10 0 59500 24300.00000 0 2861159.479 13262849.014 -21564366.416 10 0 59500 25200.00000 0 1412553.393 15407152.899 -20242425.437 10 0 59500 26100.00000 0 220320.980 17490633.285 -18525961.929 10 0 59500 27000.00000 0 -709717.291 19447534.773 -16448452.865 10 0 59500 27900.00000 0 -1384244.032 21214112.906 -14050426.602 10 0 59500 28800.00000 0 -1821910.615 22731218.074 -11378663.092 10 0 59500 29700.00000 0 -2052291.038 23946703.006 -8485270.175 10 0 59500 30600.00000 0 -2114370.187 24817552.148 -5426654.897 10 0 59500 31500.00000 0 -2054632.510 25311643.108 -2262411.165 10 0 59500 32400.00000 0 -1924834.202 25409066.230 945853.325 10 0 59500 33300.00000 0 -1779555.263 25102947.313 4135726.756 10 0 59500 34200.00000 0 -1673636.856 24399739.855 7245214.633 10 0 59500 35100.00000 0 -1659613.882 23318975.793 10213948.355 10 0 59500 36000.00000 0 -1785252.345 21892486.749 12984356.895 10 0 59500 36900.00000 0 -2091296.013 20163129.964 15502778.660 10 0 59500 37800.00000 0 -2609517.560 18183073.711 17720492.384 10 0 59500 38700.00000 0 -3361155.939 16011714.936 19594647.968 10 0 59500 39600.00000 0 -4355805.178 13713316.744 21089080.426 10 0 59500 40500.00000 0 -5590800.642 11354464.215 22174992.794 10 0 59500 41400.00000 0 -7051128.030 9001443.879 22831496.478 10 0 59500 42300.00000 0 -8709858.647 6717654.722 23046000.203 10 0 59500 43200.00000 0 -10529092.985 4561156.603 22814441.532 10 0 59500 44100.00000 0 -12461373.878 2582455.897 22141357.583 10 0 59500 45000.00000 0 -14451511.334 822618.257 21039794.217 10 0 59500 45900.00000 0 -16438744.522 -688215.254 19531055.617 10 0 59500 46800.00000 0 -18359152.521 -1931848.856 17644298.734 10 0 59500 47700.00000 0 -20148215.169 -2902548.572 15415979.640 10 0 59500 48600.00000 0 -21743418.964 -3607034.179 12889161.331 10 0 59500 49500.00000 0 -23086800.756 -4063947.599 10112694.947 10 0 59500 50400.00000 0 -24127323.985 -4302820.112 7140288.820 10 0 59500 51300.00000 0 -24822988.690 -4362581.656 4029481.970 10 0 59500 52200.00000 0 -25142586.909 -4289674.479 840540.632 10 0 59500 53100.00000 0 -25067029.354 -4135850.129 -2364701.631 10 0 59500 54000.00000 0 -24590186.670 -3955742.367 -5524038.391 10 0 59500 54900.00000 0 -23719208.539 -3804318.355 -8576096.494 10 0 59500 55800.00000 0 -22474305.577 -3734316.028 -11461530.280 10 0 59500 56700.00000 0 -20888001.456 -3793776.642 -14124180.352 10 0 59500 57600.00000 0 -19003884.952 -4023777.855 -16512173.794 10 0 59500 58500.00000 0 -16874912.831 -4456464.621 -18578943.615 10 0 59500 59400.00000 0 -14561333.572 -5113462.853 -20284146.801 10 0 59500 60300.00000 0 -12128318.015 -6004744.886 -21594462.255 10 0 59500 61200.00000 0 -9643395.749 -7127996.654 -22484252.193 10 0 59500 62100.00000 0 -7173804.257 -8468515.382 -22936073.333 10 0 59500 63000.00000 0 -4783861.752 -9999644.057 -22941027.171 10 0 59500 63900.00000 0 -2532473.801 -11683726.001 -22498941.808 10 0 59500 64800.00000 0 -470878.200 -13473540.737 -21618381.220 10 0 59500 65700.00000 0 1359277.494 -15314161.638 -20316481.298 10 0 59500 66600.00000 0 2927445.282 -17145157.645 -18618615.569 10 0 59500 67500.00000 0 4215210.162 -18903046.498 -16557896.980 10 0 59500 68400.00000 0 5216805.112 -20523895.937 -14174525.607 10 0 59500 69300.00000 0 5939087.178 -21945962.791 -11514995.417 10 0 59500 70200.00000 0 6400977.353 -23112258.134 -8631176.257 10 0 59500 71100.00000 0 6632389.833 -23972929.812 -5579289.866 10 0 59500 72000.00000 0 6672698.051 -24487361.383 -2418801.125 10 0 59500 72900.00000 0 6568804.652 -24625898.842 788752.597 10 0 59500 73800.00000 0 6372899.307 -24371132.509 3980969.906 10 0 59500 74700.00000 0 6140001.303 -23718680.606 7095806.860 10 0 59500 75600.00000 0 5925392.578 -22677442.448 10072786.800 10 0 59500 76500.00000 0 5782051.063 -21269311.737 12854174.456 10 0 59500 77400.00000 0 5758193.507 -19528363.289 15386091.322 10 0 59500 78300.00000 0 5895031.758 -17499548.491 17619551.064 10 0 59500 79200.00000 0 6224836.840 -15236955.070 19511395.751 10 0 59500 80100.00000 0 6769391.740 -12801704.505 21025115.946 10 0 59500 81000.00000 0 7538897.168 -10259574.857 22131540.374 10 0 59500 81900.00000 0 8531375.444 -7678447.461 22809383.507 10 0 59500 82800.00000 0 9732596.884 -5125682.686 23045642.095 10 0 59500 83700.00000 0 11116531.521 -2665532.130 22835834.475 10 0 59500 84600.00000 0 12646307.457 -356692.711 22184079.145 10 0 59500 85500.00000 0 14275636.432 1749897.950 21103011.758 99